LNK84V FAOR-FDSK

Flight info

Callsign LNK84V
Flight time N/A
Altitude 27000
Route EXOBI1A EXOBI UQ4 DUKRA DCT VSK
Aircraft E190/M-SDE3GILORVW/S

Departure

Time 2026-05-06 18:23
Airport O.R. Tambo International Airport (FAOR)

Arrival

Time N/A
Airport King Mswati III International Airport (FDSK)
Time Latitude Longitude Altitude Speed Heading
2026-05-06 17:51 -26.12904 28.23598 5543 ft 0 kts 186°
2026-05-06 18:08 -26.12891 28.23599 5543 ft 2 kts 185°
2026-05-06 18:08 -26.12876 28.23601 5543 ft 2 kts 186°
2026-05-06 18:09 -26.12866 28.23602 5542 ft 2 kts 185°
2026-05-06 18:09 -26.12852 28.23601 5542 ft 2 kts 162°
2026-05-06 18:09 -26.12838 28.23594 5542 ft 2 kts 146°
2026-05-06 18:09 -26.12826 28.23583 5542 ft 2 kts 129°
2026-05-06 18:10 -26.12818 28.23569 5543 ft 2 kts 112°
2026-05-06 18:10 -26.12815 28.23556 5543 ft 0 kts 98°
2026-05-06 18:10 -26.12814 28.23548 5543 ft 0 kts 96°
2026-05-06 18:12 -26.12817 28.23570 5542 ft 7 kts 98°
2026-05-06 18:12 -26.12825 28.23642 5540 ft 11 kts 95°
2026-05-06 18:12 -26.12835 28.23737 5535 ft 13 kts 110°
2026-05-06 18:13 -26.12914 28.23765 5535 ft 13 kts 197°
2026-05-06 18:13 -26.13000 28.23738 5538 ft 11 kts 195°
2026-05-06 18:13 -26.13076 28.23715 5541 ft 11 kts 197°
2026-05-06 18:13 -26.13149 28.23692 5544 ft 11 kts 195°
2026-05-06 18:14 -26.13236 28.23665 5547 ft 15 kts 195°
2026-05-06 18:14 -26.13354 28.23629 5552 ft 16 kts 195°
2026-05-06 18:14 -26.13457 28.23597 5555 ft 14 kts 195°
2026-05-06 18:14 -26.13563 28.23564 5558 ft 15 kts 196°
2026-05-06 18:15 -26.13679 28.23528 5560 ft 17 kts 195°
2026-05-06 18:15 -26.13794 28.23493 5562 ft 16 kts 195°
2026-05-06 18:15 -26.13913 28.23456 5564 ft 17 kts 196°
2026-05-06 18:15 -26.14029 28.23420 5566 ft 16 kts 196°
2026-05-06 18:16 -26.14134 28.23388 5568 ft 15 kts 196°
2026-05-06 18:16 -26.14242 28.23354 5571 ft 16 kts 196°
2026-05-06 18:16 -26.14354 28.23319 5573 ft 15 kts 196°
2026-05-06 18:16 -26.14451 28.23289 5576 ft 13 kts 194°
2026-05-06 18:17 -26.14541 28.23281 5578 ft 9 kts 171°
2026-05-06 18:17 -26.14582 28.23298 5578 ft 0 kts 137°
2026-05-06 18:20 -26.14595 28.23319 5577 ft 9 kts 117°
2026-05-06 18:20 -26.14620 28.23412 5574 ft 13 kts 93°
2026-05-06 18:20 -26.14572 28.23457 5571 ft 0 kts 15°
2026-05-06 18:22 -26.14512 28.23475 5570 ft 34 kts 15°
2026-05-06 18:23 -26.14038 28.23622 5555 ft 105 kts 15°
2026-05-06 18:23 -26.13131 28.23909 5545 ft 160 kts 14°
2026-05-06 18:23 -26.12054 28.24263 6111 ft 163 kts 14°
2026-05-06 18:23 -26.10945 28.24622 6730 ft 169 kts 13°
2026-05-06 18:24 -26.09876 28.24993 7335 ft 162 kts 13°
2026-05-06 18:24 -26.08833 28.25382 7954 ft 167 kts 13°
2026-05-06 18:24 -26.07593 28.25853 8116 ft 204 kts 13°
2026-05-06 18:24 -26.06144 28.26390 8469 ft 229 kts 13°
2026-05-06 18:25 -26.04596 28.27059 8924 ft 255 kts 28°
2026-05-06 18:25 -26.03337 28.28645 9192 ft 299 kts 63°
2026-05-06 18:25 -26.02994 28.30994 9704 ft 324 kts 97°
2026-05-06 18:25 -26.03507 28.33458 10511 ft 332 kts 98°
2026-05-06 18:26 -26.03748 28.35985 11385 ft 337 kts 97°
2026-05-06 18:26 -26.04045 28.38612 12108 ft 348 kts 98°
2026-05-06 18:26 -26.04385 28.41312 12800 ft 358 kts 99°
2026-05-06 18:26 -26.04745 28.44075 13533 ft 366 kts 99°
2026-05-06 18:27 -26.05116 28.46880 14295 ft 372 kts 98°
2026-05-06 18:27 -26.05492 28.49717 15018 ft 379 kts 98°
2026-05-06 18:27 -26.05878 28.52626 15752 ft 385 kts 98°
2026-05-06 18:27 -26.06269 28.55578 16446 ft 391 kts 98°
2026-05-06 18:28 -26.06666 28.58581 17154 ft 397 kts 98°
2026-05-06 18:28 -26.07068 28.61626 17847 ft 402 kts 98°
2026-05-06 18:28 -26.07475 28.64713 18520 ft 407 kts 98°
2026-05-06 18:28 -26.07887 28.67841 19113 ft 414 kts 97°
2026-05-06 18:29 -26.08303 28.71007 19679 ft 421 kts 96°
2026-05-06 18:29 -26.08731 28.74271 20253 ft 427 kts 96°
2026-05-06 18:29 -26.09162 28.77565 20802 ft 434 kts 96°
2026-05-06 18:29 -26.09597 28.80892 21322 ft 440 kts 95°
2026-05-06 18:30 -26.10035 28.84246 21843 ft 447 kts 95°
2026-05-06 18:30 -26.10485 28.87705 22328 ft 453 kts 94°
2026-05-06 18:30 -26.10936 28.91176 22805 ft 459 kts 94°
2026-05-06 18:30 -26.11395 28.94718 23310 ft 465 kts 94°
2026-05-06 18:31 -26.11854 28.98265 23882 ft 467 kts 94°
2026-05-06 18:31 -26.12319 29.01858 24441 ft 470 kts 93°
2026-05-06 18:31 -26.12779 29.05430 24916 ft 475 kts 94°
2026-05-06 18:31 -26.13250 29.09091 25448 ft 478 kts 93°
2026-05-06 18:32 -26.13723 29.12771 25928 ft 482 kts 93°
2026-05-06 18:32 -26.14193 29.16447 26407 ft 486 kts 93°
2026-05-06 18:32 -26.14670 29.20169 26838 ft 491 kts 92°
2026-05-06 18:32 -26.15152 29.23964 27068 ft 501 kts 93°
2026-05-06 18:33 -26.15643 29.27818 27091 ft 515 kts 92°
2026-05-06 18:33 -26.16156 29.31854 27101 ft 524 kts 93°
2026-05-06 18:33 -26.16660 29.35817 27094 ft 521 kts 93°
2026-05-06 18:33 -26.17168 29.39839 27085 ft 523 kts 93°
2026-05-06 18:34 -26.17670 29.43808 27090 ft 521 kts 93°
2026-05-06 18:34 -26.18167 29.47757 27094 ft 521 kts 92°
2026-05-06 18:34 -26.18669 29.51757 27089 ft 520 kts 92°
2026-05-06 18:34 -26.19170 29.55744 27087 ft 518 kts 92°
2026-05-06 18:35 -26.19666 29.59716 27095 ft 519 kts 92°
2026-05-06 18:35 -26.20162 29.63692 27089 ft 520 kts 92°
2026-05-06 18:35 -26.20658 29.67673 27074 ft 519 kts 91°
2026-05-06 18:35 -26.21144 29.71584 27065 ft 516 kts 91°
2026-05-06 18:36 -26.21639 29.75591 27071 ft 519 kts 92°
2026-05-06 18:36 -26.22129 29.79545 27070 ft 516 kts 91°
2026-05-06 18:36 -26.22619 29.83522 27074 ft 517 kts 91°
2026-05-06 18:36 -26.23107 29.87483 27070 ft 517 kts 91°
2026-05-06 18:37 -26.23591 29.91439 27075 ft 520 kts 91°
2026-05-06 18:37 -26.24077 29.95389 27070 ft 515 kts 91°
2026-05-06 18:37 -26.24561 29.99364 27072 ft 520 kts 91°
2026-05-06 18:37 -26.25046 30.03338 27073 ft 518 kts 91°
2026-05-06 18:38 -26.25532 30.07323 27073 ft 515 kts 91°
2026-05-06 18:38 -26.26007 30.11249 27073 ft 515 kts 91°
2026-05-06 18:38 -26.26487 30.15217 27071 ft 516 kts 91°
2026-05-06 18:38 -26.26963 30.19152 27063 ft 514 kts 91°
2026-05-06 18:39 -26.27435 30.23062 27069 ft 505 kts 91°
2026-05-06 18:39 -26.27810 30.26873 27068 ft 495 kts 86°
2026-05-06 18:39 -26.28060 30.30680 27066 ft 497 kts 87°
2026-05-06 18:40 -26.28625 30.38344 27056 ft 495 kts 87°
2026-05-06 18:40 -26.28909 30.42188 27058 ft 498 kts 87°
2026-05-06 18:40 -26.29194 30.46023 27060 ft 497 kts 88°
2026-05-06 18:40 -26.29475 30.49830 27066 ft 496 kts 87°
2026-05-06 18:41 -26.29755 30.53633 27050 ft 494 kts 87°
2026-05-06 18:41 -26.30034 30.57430 27053 ft 493 kts 87°
2026-05-06 18:41 -26.30314 30.61268 27059 ft 492 kts 87°
2026-05-06 18:41 -26.30591 30.65067 27060 ft 490 kts 86°
2026-05-06 18:42 -26.30861 30.68756 26699 ft 476 kts 86°
2026-05-06 18:42 -26.31125 30.72428 25903 ft 473 kts 86°
2026-05-06 18:42 -26.31385 30.76061 25036 ft 471 kts 86°
2026-05-06 18:42 -26.31645 30.79675 24266 ft 469 kts 87°
2026-05-06 18:43 -26.31903 30.83283 23665 ft 466 kts 86°
2026-05-06 18:43 -26.32155 30.86795 23107 ft 457 kts 87°
2026-05-06 18:43 -26.32404 30.90302 22473 ft 449 kts 86°
2026-05-06 18:43 -26.32647 30.93740 21752 ft 444 kts 86°
2026-05-06 18:44 -26.32886 30.97132 20989 ft 441 kts 86°
2026-05-06 18:44 -26.33122 31.00486 20268 ft 436 kts 86°
2026-05-06 18:44 -26.33356 31.03819 19582 ft 431 kts 86°
2026-05-06 18:44 -26.33587 31.07135 18859 ft 427 kts 86°
2026-05-06 18:45 -26.33814 31.10391 18137 ft 423 kts 85°
2026-05-06 18:45 -26.34039 31.13638 17442 ft 419 kts 86°
2026-05-06 18:45 -26.34259 31.16832 16783 ft 415 kts 86°
2026-05-06 18:45 -26.34479 31.20032 16088 ft 411 kts 87°
2026-05-06 18:46 -26.34696 31.23169 15496 ft 405 kts 87°
2026-05-06 18:46 -26.34908 31.26279 14820 ft 401 kts 88°
2026-05-06 18:46 -26.35118 31.29342 14201 ft 395 kts 88°
2026-05-06 18:46 -26.35323 31.32356 13550 ft 392 kts 88°
2026-05-06 18:47 -26.35528 31.35384 12886 ft 388 kts 88°
2026-05-06 18:47 -26.35728 31.38338 12266 ft 383 kts 89°
2026-05-06 18:47 -26.35926 31.41269 11680 ft 377 kts 89°
2026-05-06 18:47 -26.36120 31.44142 11199 ft 368 kts 89°
2026-05-06 18:48 -26.36307 31.46918 10840 ft 356 kts 88°
2026-05-06 18:48 -26.36490 31.49646 10483 ft 345 kts 88°
2026-05-06 18:48 -26.36672 31.52264 10125 ft 337 kts 89°
2026-05-06 18:48 -26.36857 31.54853 9771 ft 333 kts 89°
2026-05-06 18:49 -26.37040 31.57377 9422 ft 329 kts 89°
2026-05-06 18:49 -26.37249 31.59913 9073 ft 327 kts 96°
2026-05-06 18:49 -26.37814 31.62355 8739 ft 323 kts 92°
2026-05-06 18:49 -26.37823 31.64781 8470 ft 313 kts 83°
2026-05-06 18:50 -26.37823 31.67219 8348 ft 310 kts 84°
2026-05-06 18:50 -26.37405 31.69434 8189 ft 277 kts 51°
2026-05-06 18:50 -26.36172 31.70825 8133 ft 235 kts 21°
2026-05-06 18:50 -26.34792 31.71548 8071 ft 210 kts 11°